ITY5TW LIMJ-LIEO

Flight info

Callsign ITY5TW
Flight time 0h 53m
Altitude 31000
Route UNITA M858 TORTU A9 CORSI
Aircraft A320/M-SDE3FGHIRWY/LB1

Departure

Time 2026-04-27 20:34
Airport Genoa Cristoforo Colombo Airport (LIMJ)

Arrival

Time 2026-04-27 21:28
Airport Olbia Costa Smeralda Airport (LIEO)
Time Latitude Longitude Altitude Speed Heading
2026-04-27 20:12 44.41418 8.85039 20 ft 0 kts 15°
2026-04-27 20:26 44.41350 8.84965 20 ft 0 kts 103°
2026-04-27 20:26 44.41350 8.84964 20 ft 0 kts 103°
2026-04-27 20:28 44.41346 8.84990 20 ft 3 kts 103°
2026-04-27 20:28 44.41340 8.85027 20 ft 11 kts 103°
2026-04-27 20:29 44.41312 8.85175 21 ft 11 kts 105°
2026-04-27 20:29 44.41278 8.85257 20 ft 9 kts 139°
2026-04-27 20:29 44.41224 8.85276 20 ft 8 kts 187°
2026-04-27 20:29 44.41161 8.85255 20 ft 13 kts 194°
2026-04-27 20:30 44.41112 8.85237 20 ft 9 kts 195°
2026-04-27 20:30 44.41042 8.85184 17 ft 15 kts 199°
2026-04-27 20:30 44.40984 8.85272 18 ft 14 kts 109°
2026-04-27 20:30 44.40950 8.85439 21 ft 19 kts 106°
2026-04-27 20:31 44.40915 8.85618 21 ft 19 kts 105°
2026-04-27 20:31 44.40879 8.85801 24 ft 21 kts 105°
2026-04-27 20:31 44.40884 8.85996 23 ft 18 kts 68°
2026-04-27 20:31 44.40843 8.86068 22 ft 9 kts 194°
2026-04-27 20:32 44.40836 8.85997 22 ft 8 kts 300°
2026-04-27 20:32 44.40859 8.85906 21 ft 12 kts 285°
2026-04-27 20:32 44.40861 8.85892 22 ft 0 kts 284°
2026-04-27 20:33 44.40878 8.85802 24 ft 40 kts 285°
2026-04-27 20:33 44.41016 8.85091 18 ft 109 kts 285°
2026-04-27 20:34 44.41265 8.83820 21 ft 160 kts 285°
2026-04-27 20:34 44.41574 8.82191 334 ft 180 kts 286°
2026-04-27 20:34 44.41913 8.80458 930 ft 189 kts 284°
2026-04-27 20:34 44.42188 8.78641 1599 ft 193 kts 270°
2026-04-27 20:35 44.41893 8.76836 2288 ft 191 kts 237°
2026-04-27 20:35 44.40977 8.75551 2973 ft 187 kts 206°
2026-04-27 20:35 44.39732 8.75172 3658 ft 185 kts 175°
2026-04-27 20:35 44.38536 8.75782 4326 ft 186 kts 147°
2026-04-27 20:36 44.37429 8.76701 4980 ft 185 kts 151°
2026-04-27 20:36 44.36338 8.77640 5605 ft 184 kts 149°
2026-04-27 20:36 44.35288 8.78645 6221 ft 182 kts 146°
2026-04-27 20:36 44.34284 8.79710 6790 ft 180 kts 143°
2026-04-27 20:37 44.33203 8.80674 7079 ft 195 kts 168°
2026-04-27 20:37 44.31819 8.80467 7275 ft 213 kts 199°
2026-04-27 20:37 44.30315 8.80481 7579 ft 229 kts 157°
2026-04-27 20:37 44.28879 8.81644 7830 ft 251 kts 149°
2026-04-27 20:38 44.27318 8.82966 8160 ft 274 kts 150°
2026-04-27 20:38 44.25614 8.84276 8799 ft 284 kts 153°
2026-04-27 20:38 44.23833 8.85513 9588 ft 288 kts 155°
2026-04-27 20:38 44.21992 8.86690 10310 ft 296 kts 156°
2026-04-27 20:39 44.20028 8.87878 10570 ft 319 kts 157°
2026-04-27 20:39 44.17904 8.89114 10779 ft 342 kts 158°
2026-04-27 20:39 44.15656 8.90397 11234 ft 354 kts 158°
2026-04-27 20:39 44.13356 8.91702 11898 ft 359 kts 158°
2026-04-27 20:40 44.11025 8.93027 12604 ft 364 kts 158°
2026-04-27 20:40 44.08671 8.94374 13298 ft 368 kts 158°
2026-04-27 20:40 44.06291 8.95738 13903 ft 373 kts 158°
2026-04-27 20:40 44.03886 8.97114 14067 ft 374 kts 158°
2026-04-27 20:41 44.01477 8.98488 14122 ft 374 kts 158°
2026-04-27 20:41 43.99069 8.99859 14126 ft 374 kts 158°
2026-04-27 20:41 43.96662 9.01229 14129 ft 374 kts 158°
2026-04-27 20:41 43.94254 9.02599 14132 ft 374 kts 158°
2026-04-27 20:42 43.91839 9.03935 14126 ft 374 kts 162°
2026-04-27 20:42 43.89270 9.04512 14556 ft 377 kts 180°
2026-04-27 20:42 43.86644 9.04224 15206 ft 380 kts 186°
2026-04-27 20:42 43.84003 9.03834 15821 ft 383 kts 187°
2026-04-27 20:43 43.81343 9.03417 16431 ft 387 kts 187°
2026-04-27 20:43 43.78661 9.02982 17042 ft 390 kts 187°
2026-04-27 20:43 43.75956 9.02537 17638 ft 393 kts 187°
2026-04-27 20:43 43.73225 9.02091 18238 ft 397 kts 187°
2026-04-27 20:44 43.70470 9.01645 18772 ft 400 kts 187°
2026-04-27 20:44 43.67865 9.01186 19271 ft 403 kts 189°
2026-04-27 20:44 43.65087 9.00552 19790 ft 406 kts 191°
2026-04-27 20:44 43.62298 8.99862 20316 ft 409 kts 191°
2026-04-27 20:45 43.59492 8.99135 20836 ft 412 kts 191°
2026-04-27 20:45 43.56670 8.98385 21341 ft 415 kts 192°
2026-04-27 20:45 43.53817 8.97696 21830 ft 418 kts 187°
2026-04-27 20:45 43.50910 8.97308 22307 ft 421 kts 186°
2026-04-27 20:46 43.47979 8.96939 22775 ft 424 kts 186°
2026-04-27 20:46 43.45033 8.96579 23224 ft 427 kts 185°
2026-04-27 20:46 43.42060 8.96220 23665 ft 430 kts 185°
2026-04-27 20:46 43.39073 8.95857 24033 ft 433 kts 185°
2026-04-27 20:47 43.36102 8.95502 24378 ft 435 kts 185°
2026-04-27 20:47 43.33077 8.95159 24723 ft 438 kts 185°
2026-04-27 20:47 43.30028 8.94823 25063 ft 441 kts 185°
2026-04-27 20:47 43.26964 8.94485 25402 ft 443 kts 185°
2026-04-27 20:48 43.23885 8.94146 25724 ft 446 kts 185°
2026-04-27 20:48 43.20785 8.93801 26059 ft 448 kts 185°
2026-04-27 20:48 43.17669 8.93443 26367 ft 451 kts 185°
2026-04-27 20:48 43.14536 8.93072 26680 ft 453 kts 185°
2026-04-27 20:49 43.11383 8.92693 26991 ft 455 kts 185°
2026-04-27 20:49 43.08223 8.92313 27294 ft 458 kts 185°
2026-04-27 20:49 43.05040 8.91935 27592 ft 460 kts 185°
2026-04-27 20:49 43.01846 8.91559 27880 ft 462 kts 185°
2026-04-27 20:50 42.98637 8.91183 28160 ft 464 kts 185°
2026-04-27 20:50 42.95409 8.90806 28434 ft 466 kts 185°
2026-04-27 20:50 42.92171 8.90430 28696 ft 468 kts 185°
2026-04-27 20:50 42.88913 8.90056 28948 ft 470 kts 185°
2026-04-27 20:51 42.85647 8.89683 29209 ft 472 kts 184°
2026-04-27 20:51 42.82368 8.89312 29451 ft 474 kts 184°
2026-04-27 20:51 42.79080 8.88946 29713 ft 474 kts 184°
2026-04-27 20:51 42.75793 8.88591 30049 ft 474 kts 184°
2026-04-27 20:52 42.72506 8.88237 30347 ft 473 kts 184°
2026-04-27 20:52 42.69226 8.87871 30626 ft 473 kts 184°
2026-04-27 20:52 42.65944 8.87497 30909 ft 473 kts 184°
2026-04-27 20:52 42.62667 8.87120 31077 ft 473 kts 184°
2026-04-27 20:53 42.56143 8.86364 31111 ft 469 kts 184°
2026-04-27 20:53 42.49639 8.85615 31112 ft 469 kts 184°
2026-04-27 20:54 42.39885 8.84511 31113 ft 469 kts 184°
2026-04-27 20:55 42.33387 8.83770 31120 ft 469 kts 184°
2026-04-27 20:55 42.26892 8.83038 31117 ft 468 kts 184°
2026-04-27 20:56 42.20400 8.82534 31118 ft 467 kts 180°
2026-04-27 20:56 42.13949 8.82494 31123 ft 467 kts 179°
2026-04-27 20:57 42.07458 8.82525 31117 ft 467 kts 179°
2026-04-27 20:57 42.00966 8.82446 31129 ft 466 kts 180°
2026-04-27 20:58 41.94482 8.82308 31129 ft 466 kts 180°
2026-04-27 20:58 41.87960 8.82172 31128 ft 466 kts 180°
2026-04-27 20:59 41.81484 8.82052 31135 ft 465 kts 180°
2026-04-27 20:59 41.75022 8.81956 31134 ft 464 kts 180°
2026-04-27 20:59 41.71793 8.81902 31017 ft 464 kts 180°
2026-04-27 21:00 41.68607 8.81845 30768 ft 464 kts 180°
2026-04-27 21:00 41.65343 8.81786 29961 ft 465 kts 180°
2026-04-27 21:00 41.62131 8.81727 28588 ft 467 kts 180°
2026-04-27 21:00 41.58919 8.81667 27610 ft 453 kts 180°
2026-04-27 21:01 41.55807 8.81614 27033 ft 432 kts 180°
2026-04-27 21:01 41.52850 8.81568 26358 ft 419 kts 180°
2026-04-27 21:01 41.49948 8.81518 25701 ft 415 kts 180°
2026-04-27 21:01 41.47052 8.81465 25058 ft 416 kts 180°
2026-04-27 21:02 41.44158 8.81413 24416 ft 415 kts 180°
2026-04-27 21:02 41.41280 8.81359 23777 ft 413 kts 180°
2026-04-27 21:02 41.38410 8.81315 23079 ft 412 kts 179°
2026-04-27 21:02 41.35577 8.81675 22498 ft 407 kts 169°
2026-04-27 21:03 41.32855 8.82638 21927 ft 403 kts 160°
2026-04-27 21:03 41.30343 8.84142 21394 ft 400 kts 150°
2026-04-27 21:03 41.28019 8.86147 20856 ft 397 kts 144°
2026-04-27 21:03 41.25767 8.88244 20350 ft 394 kts 145°
2026-04-27 21:04 41.23526 8.90320 19849 ft 391 kts 145°
2026-04-27 21:04 41.21271 8.92400 19362 ft 388 kts 145°
2026-04-27 21:04 41.19087 8.94407 18881 ft 386 kts 145°
2026-04-27 21:04 41.16891 8.96424 18429 ft 383 kts 145°
2026-04-27 21:05 41.14711 8.98431 17906 ft 380 kts 145°
2026-04-27 21:05 41.12552 9.00420 17435 ft 376 kts 145°
2026-04-27 21:05 41.10413 9.02387 16963 ft 372 kts 145°
2026-04-27 21:05 41.08292 9.04336 16466 ft 370 kts 146°
2026-04-27 21:06 41.06185 9.06270 16003 ft 367 kts 146°
2026-04-27 21:06 41.04089 9.08191 15503 ft 366 kts 146°
2026-04-27 21:06 41.02001 9.10101 15008 ft 364 kts 146°
2026-04-27 21:06 40.99911 9.12011 14438 ft 366 kts 146°
2026-04-27 21:07 40.97788 9.13953 13866 ft 367 kts 146°
2026-04-27 21:07 40.95688 9.15872 13235 ft 367 kts 146°
2026-04-27 21:07 40.93644 9.17809 12649 ft 366 kts 140°
2026-04-27 21:07 40.92044 9.20399 12052 ft 366 kts 118°
2026-04-27 21:08 40.91278 9.23583 11439 ft 366 kts 96°
2026-04-27 21:08 40.91462 9.26909 10877 ft 364 kts 73°
2026-04-27 21:08 40.92533 9.29850 10740 ft 349 kts 56°
2026-04-27 21:08 40.93877 9.32439 10607 ft 335 kts 55°
2026-04-27 21:09 40.95160 9.34900 10477 ft 314 kts 55°
2026-04-27 21:09 40.96375 9.37222 10057 ft 302 kts 55°
2026-04-27 21:09 40.97556 9.39475 9791 ft 297 kts 56°
2026-04-27 21:09 40.98732 9.41717 9650 ft 296 kts 56°
2026-04-27 21:10 40.99885 9.43919 9518 ft 286 kts 56°
2026-04-27 21:10 41.00997 9.46046 9354 ft 277 kts 55°
2026-04-27 21:10 41.02094 9.48139 8976 ft 277 kts 55°
2026-04-27 21:10 41.03184 9.50210 8675 ft 273 kts 55°
2026-04-27 21:11 41.04264 9.52260 8364 ft 269 kts 55°
2026-04-27 21:11 41.05328 9.54284 8081 ft 266 kts 55°
2026-04-27 21:11 41.06381 9.56286 7804 ft 264 kts 54°
2026-04-27 21:11 41.07428 9.58277 7534 ft 263 kts 55°
2026-04-27 21:12 41.08469 9.60257 7263 ft 261 kts 55°
2026-04-27 21:12 41.09502 9.62229 6992 ft 260 kts 55°
2026-04-27 21:12 41.10531 9.64190 6707 ft 258 kts 54°
2026-04-27 21:12 41.11550 9.66133 6474 ft 254 kts 54°
2026-04-27 21:13 41.12543 9.68030 6190 ft 249 kts 55°
2026-04-27 21:13 41.13523 9.69905 5925 ft 243 kts 55°
2026-04-27 21:13 41.14475 9.71746 5879 ft 243 kts 55°
2026-04-27 21:13 41.15428 9.73601 5807 ft 243 kts 55°
2026-04-27 21:14 41.16381 9.75453 5637 ft 243 kts 55°
2026-04-27 21:14 41.17012 9.76675 5474 ft 242 kts 55°
2026-04-27 21:14 41.17962 9.78513 5226 ft 241 kts 55°
2026-04-27 21:14 41.18909 9.80339 5035 ft 240 kts 55°
2026-04-27 21:15 41.19856 9.82164 4913 ft 240 kts 55°
2026-04-27 21:15 41.20803 9.83988 4792 ft 240 kts 55°
2026-04-27 21:15 41.21750 9.85819 4664 ft 241 kts 56°
2026-04-27 21:15 41.22695 9.87651 4540 ft 241 kts 56°
2026-04-27 21:16 41.23641 9.89484 4409 ft 240 kts 56°
2026-04-27 21:16 41.24583 9.91311 4281 ft 239 kts 56°
2026-04-27 21:16 41.25483 9.93162 4151 ft 239 kts 66°
2026-04-27 21:16 41.25770 9.95292 4025 ft 235 kts 98°
2026-04-27 21:17 41.25195 9.97286 3902 ft 232 kts 129°
2026-04-27 21:17 41.23979 9.98670 3786 ft 231 kts 146°
2026-04-27 21:17 41.22646 9.99868 3662 ft 231 kts 147°
2026-04-27 21:17 41.21318 10.01060 3538 ft 230 kts 146°
2026-04-27 21:18 41.19998 10.02246 3416 ft 228 kts 147°
2026-04-27 21:18 41.18612 10.03241 3282 ft 226 kts 167°
2026-04-27 21:18 41.17069 10.03147 3163 ft 225 kts 202°
2026-04-27 21:18 41.15848 10.01902 3060 ft 226 kts 234°
2026-04-27 21:19 41.14978 10.00154 3016 ft 228 kts 236°
2026-04-27 21:19 41.14093 9.98408 3018 ft 228 kts 234°
2026-04-27 21:19 41.13200 9.96669 3013 ft 228 kts 234°
2026-04-27 21:20 41.11510 9.93370 3015 ft 207 kts 234°
2026-04-27 21:20 41.10706 9.91799 3017 ft 205 kts 234°
2026-04-27 21:20 41.09902 9.90226 3018 ft 206 kts 234°
2026-04-27 21:20 41.09095 9.88687 3012 ft 207 kts 233°
2026-04-27 21:21 41.08265 9.87130 3013 ft 207 kts 234°
2026-04-27 21:21 41.07445 9.85558 3015 ft 207 kts 234°
2026-04-27 21:21 41.06634 9.83993 3015 ft 206 kts 233°
2026-04-27 21:21 41.05820 9.82421 3009 ft 209 kts 235°
2026-04-27 21:22 41.04996 9.80831 3011 ft 209 kts 235°
2026-04-27 21:22 41.04173 9.79242 3010 ft 209 kts 235°
2026-04-27 21:22 41.03351 9.77657 3009 ft 207 kts 235°
2026-04-27 21:22 41.02567 9.76145 3040 ft 195 kts 235°
2026-04-27 21:23 41.01811 9.74689 3013 ft 190 kts 235°
2026-04-27 21:23 41.01065 9.73253 3004 ft 189 kts 235°
2026-04-27 21:23 41.00322 9.71823 3008 ft 188 kts 235°
2026-04-27 21:23 40.99591 9.70416 2978 ft 180 kts 235°
2026-04-27 21:24 40.98898 9.69084 2822 ft 172 kts 235°
2026-04-27 21:24 40.98227 9.67794 2623 ft 168 kts 235°
2026-04-27 21:24 40.97568 9.66527 2411 ft 166 kts 235°
2026-04-27 21:24 40.96937 9.65316 2217 ft 152 kts 235°
2026-04-27 21:25 40.96353 9.64193 2009 ft 145 kts 235°
2026-04-27 21:25 40.95788 9.63109 1827 ft 141 kts 235°
2026-04-27 21:25 40.95256 9.62024 1617 ft 140 kts 235°
2026-04-27 21:25 40.94700 9.60973 1449 ft 140 kts 233°
2026-04-27 21:26 40.94134 9.59928 1296 ft 139 kts 235°
2026-04-27 21:26 40.93574 9.58883 1082 ft 139 kts 235°
2026-04-27 21:26 40.93023 9.57835 880 ft 138 kts 236°
2026-04-27 21:26 40.92480 9.56789 745 ft 138 kts 236°
2026-04-27 21:27 40.91934 9.55737 531 ft 138 kts 236°
2026-04-27 21:27 40.91392 9.54699 352 ft 137 kts 236°
2026-04-27 21:27 40.90854 9.53659 138 ft 136 kts 236°
2026-04-27 21:27 40.90328 9.52646 36 ft 125 kts 236°
2026-04-27 21:28 40.89957 9.51942 33 ft 55 kts 235°
2026-04-27 21:28 40.89780 9.51605 34 ft 45 kts 236°
2026-04-27 21:28 40.89632 9.51302 35 ft 28 kts 255°
2026-04-27 21:28 40.89671 9.51120 34 ft 14 kts 330°
2026-04-27 21:29 40.89751 9.51156 34 ft 12 kts 50°
2026-04-27 21:29 40.89799 9.51243 34 ft 11 kts 55°
2026-04-27 21:29 40.89852 9.51342 34 ft 15 kts 55°
2026-04-27 21:29 40.89906 9.51447 34 ft 13 kts 56°
2026-04-27 21:30 40.89974 9.51510 34 ft 11 kts 14°
2026-04-27 21:30 40.90041 9.51484 34 ft 10 kts 330°
2026-04-27 21:30 40.90090 9.51512 34 ft 8 kts 47°
2026-04-27 21:30 40.90118 9.51564 34 ft 7 kts 55°
2026-04-27 21:31 40.90148 9.51621 34 ft 12 kts 55°
2026-04-27 21:31 40.90186 9.51647 34 ft 5 kts 347°
2026-04-27 21:31 40.90212 9.51628 34 ft 4 kts 327°
2026-04-27 21:31 40.90218 9.51623 34 ft 1 kts 325°
2026-04-27 21:32 40.90222 9.51620 34 ft 2 kts 325°
2026-04-27 21:32 40.90227 9.51615 34 ft 0 kts 325°
2026-04-27 21:32 40.90226 9.51616 34 ft 0 kts 325°